FW6724 Weather Reports


time (UTC)temp
C
wind
direction
speed
KPH
gust
KPH
rain 1hr
cm
rain 24hr
cm
rain mn
cm
humidity
%
barometer
mb
20260504081537 17 0 0.0 0.0 0.00 0.05 0.05 74 1013.6
20260504044541 17 0 0.0 0.0 0.00 0.05 0.05 72 1012.8
20260504043035 17 0 0.0 0.0 0.00 0.05 0.05 72 1012.8
20260504041537 17 0 0.0 0.0 0.00 0.05 0.05 72 1012.9
20260504040038 17 0 0.0 0.0 0.00 0.05 0.05 72 1012.9
20260504034540 17 0 0.0 0.0 0.00 0.05 0.05 72 1013.0
20260504033048 17 0 0.0 0.0 0.00 0.05 0.05 71 1013.2
20260504031534 17 0 0.0 0.0 0.00 0.05 0.05 71 1013.3
20260504030035 17 0 0.0 0.0 0.00 0.05 0.05 71 1013.5
20260504024535 17 0 0.0 0.0 0.00 0.05 0.05 71 1013.6
20260504023036 17 0 0.0 0.0 0.00 0.05 0.05 70 1013.6
20260504021536 17 0 0.0 0.0 0.00 0.05 0.05 70 1013.6
20260504020035 17 0 0.0 0.0 0.00 0.03 0.03 70 1013.7
20260504014536 17 0 0.0 0.0 0.03 0.03 0.03 70 1013.7
20260504013042 17 0 0.0 0.0 0.03 0.03 0.03 69 1013.8
20260504011536 17 0 0.0 0.0 0.03 0.03 0.03 69 1013.9
20260504010047 17 0 0.0 0.0 0.00 0.00 0.00 68 1013.9
20260504004536 17 0 0.0 0.0 0.00 0.00 0.00 68 1014.0
20260504003039 17 0 0.0 0.0 0.00 0.00 0.00 68 1014.1
20260504001554 17 0 0.0 0.0 0.00 0.00 0.00 67 1014.1
20260504000041 18 0 0.0 8.0 0.00 0.00 0.00 68 1014.0
20260503234536 18 0 0.0 1.6 0.00 0.00 0.00 67 1014.2
20260503233039 18 144 0.0 6.4 0.00 0.00 0.00 67 1014.2
20260503231534 18 0 0.0 0.0 0.00 0.00 0.00 67 1014.3
20260503230033 18 0 0.0 0.0 0.00 0.00 0.00 67 1014.5
20260503224538 18 0 0.0 0.0 0.00 0.00 0.00 67 1014.5
20260503223039 18 0 0.0 0.0 0.00 0.00 0.00 67 1014.6
20260503221541 18 0 0.0 0.0 0.00 0.00 0.00 66 1014.7
20260503220047 18 0 0.0 0.0 0.00 0.00 0.00 66 1014.9
20260503214537 18 76 3.2 6.4 0.00 0.00 0.00 66 1015.0
20260503213038 18 76 3.2 11.3 0.00 0.00 0.00 64 1015.1
20260503211545 18 98 3.2 11.3 0.00 0.00 0.00 64 1015.0
20260503210033 18 81 4.8 12.9 0.00 0.00 0.00 63 1015.0
20260503204534 18 100 3.2 11.3 0.00 0.00 0.00 64 1014.9
20260503203035 18 82 4.8 12.9 0.00 0.00 0.00 64 1014.8
20260503201537 18 109 3.2 16.1 0.00 0.00 0.00 63 1014.4
20260503200038 18 128 8.0 16.1 0.00 0.00 0.00 63 1014.2
20260503194535 18 145 4.8 14.5 0.00 0.00 0.00 62 1014.0
20260503193042 18 131 4.8 17.7 0.00 0.00 0.00 62 1013.4
20260503191536 18 165 8.0 17.7 0.00 0.00 0.00 61 1013.2
20260503190036 19 115 4.8 16.1 0.00 0.00 0.00 61 1013.2
20260503184537 19 111 6.4 16.1 0.00 0.00 0.00 60 1013.0
20260503183040 19 90 9.7 16.1 0.00 0.00 0.00 59 1012.9
20260503181612 20 124 8.0 17.7 0.00 0.00 0.00 58 1012.9
20260503180032 20 113 6.4 19.3 0.00 0.00 0.00 57 1012.8
20260503174539 20 83 8.0 17.7 0.00 0.00 0.00 56 1012.8
20260503173046 20 67 6.4 16.1 0.00 0.00 0.00 55 1012.7
20260503171532 20 124 8.0 19.3 0.00 0.00 0.00 55 1012.5